ATLAS 5 CENTAUR DEB, 43975

Orbit data source: Space-Track

ATLAS 5 CENTAUR DEB, 43975 is space debris in HEO originally from a launch on Wed, 17 Sep 2014 UTC launched from the Air Force Eastern Test Range (AFETR). Debris objects in space refer to the collection of defunct objects orbiting the Earth. Examples of debris include non-operational satellites, rocket bodies, and fragments generated from explosions, collisions, or faulty payload assembly.

Loading next visibility...
Identifier
43975, 2014-055AE
Orbit
HEO
Last TLE update
1 day ago
Origin
Manufacturer
Unknown
Mission
Spacecraft
Bus & Motor
Unknown
Mass
Unknown
Launch date (UTC)
2014-09-17 (11 years ago)
Launch vehicle
Unknown
Launch site
Air Force Eastern Test Range (AFETR)
Object type
Payload
Rocket body
Debris
Shape & HBR
Unknown
Radar Cross Section
Small (<0.1 m²)

Expand to show TLE details & history

TLE from 1 day ago
0 ATLAS 5 CENTAUR DEB
1 43975U 14055AE  25128.15661002  .00000059  00000-0  00000-0 0  9996
2 43975  20.5733 139.6545 5038320 173.0783 198.1031  1.93210294 47154
Epoch: 2025-05-08T03:45Z
Definitive object data (Epoch: 2025-05-08T03:45:31.105Z)
Latitude
-0.00003°
Longitude
-142.92986°
Altitude
34,243.275 km
Speed
2.233 km/s
True Right ascension
09h 18m 43s
True Declination
0° 00' 00"
Sunlit
Object was in daylight at TLE epoch
Visualization TLE readout
Latitude
7.69522°
Longitude
-121.93118°
Altitude
29,894.203 km
Speed
2.709 km/s
Apparent Right ascension
10h 14m 25s
Apparent Declination
1° 19' 54"
Sunlit
Object is in daylight
Visualization observer readout
Local Sidereal Time
14:33:02
Azimuth
254.136° W
Elevation
20.067°
Doppler factor
1
Orbital elements
Apogee altitude
34,574.374 km
Perigee altitude
7,133.562 km
Semi-major axis
27,232.105 km
Eccentricity
0.503832
Inclination
20.5733°
RAAN
139.6545°
Arg. of periapsis
173.0783°
True anomaly
186.94896°
Mean anomaly
198.1031°
Eccentric anomaly
192.06781°
Mean motion
0.48297 °/min
BSTAR
Unknown
Orbital period
745.39 mins
Loading maneuver chart data...
Loading SW <> Apogee altitude chart data...
Loading historical data...
Loading historical data...
Loading historical data...
Loading historical data...
Loading historical data...
Loading historical data...
Loading historical data...

ATLAS 5 CENTAUR DEB Visibility forecast

Observer location: undefined°, undefined°

Span
Click to sort rows by Start time (UTC) header in descending order
Start Az.
Max El. time (UTC)
Max El. Az.
Max El.
End time (UTC)
End Az.
228 mins2025-05-09 06:24:13.016Z254.118° W2025-05-09 09:33:13.016Z201.517° SSW38.816°2025-05-09 10:12:13.016Z126.701° SE
135 mins2025-05-10 03:08:13.016Z239.398° WSW2025-05-10 04:07:13.016Z245.097° WSW10.687°2025-05-10 05:23:13.016Z253.102° W
|